Location: Lake of the Woods (North-East)
(49.6672°N, 94.8656°W)
Time: 21:38:03
(UTC-05:00)

ISS - All Passes

Search period start: 25 July 2016 00:00
Search period end: 04 August 2016 00:00
Orbit: 401 x 404 km, 51.6° (Epoch: 25 July)

Date Brightness Start Highest point End Pass type
(mag) Time Alt. Az. Time Alt. Az. Time Alt. Az.
25 Jul - 01:26:41 10° W 01:29:56 66° N 01:33:11 10° ENE visible
25 Jul - 03:03:18 10° WNW 03:06:33 67° N 03:09:49 10° E visible
25 Jul - 04:39:49 10° W 04:42:56 41° SSW 04:46:02 10° SE visible
25 Jul - 22:57:56 10° SSW 23:00:45 27° SE 23:03:35 10° E visible
26 Jul - 00:33:42 10° WSW 00:36:58 82° NNW 00:40:14 10° ENE visible
26 Jul - 02:10:20 10° WNW 02:13:35 59° N 02:16:49 10° E visible
26 Jul - 03:46:50 10° WNW 03:50:04 64° SSW 03:53:18 10° ESE visible
26 Jul - 05:24:08 10° WSW 05:26:01 15° SW 05:27:54 10° S daylight
26 Jul - 22:05:47 10° S 22:08:01 17° SE 22:10:15 10° E visible
26 Jul - 23:40:47 10° WSW 23:44:02 73° SSE 23:47:18 10° ENE visible
27 Jul - 01:17:20 10° W 01:20:35 58° N 01:23:48 10° E visible
27 Jul - 02:53:53 10° WNW 02:57:10 90° SSW 03:00:26 10° ESE visible
27 Jul - 04:30:38 10° W 04:33:19 23° SW 04:35:58 10° SSE visible
27 Jul - 21:14:47 10° SE 21:15:21 10° SE 21:15:55 10° SE daylight
27 Jul - 22:48:00 10° SW 22:51:09 48° SSE 22:54:19 10° ENE visible
28 Jul - 00:24:20 10° W 00:27:35 64° N 00:30:50 10° ENE visible
28 Jul - 02:00:56 10° WNW 02:04:12 71° NNE 02:07:28 10° E visible
28 Jul - 03:37:29 10° W 03:40:32 36° SSW 03:43:33 10° SE visible
28 Jul - 21:55:24 10° SSW 21:58:20 31° SSE 22:01:16 10° E visible
28 Jul - 23:31:20 10° W 23:34:36 77° NNW 23:37:52 10° ENE visible
29 Jul - 01:07:59 10° WNW 01:11:13 61° N 01:14:27 10° E visible
29 Jul - 02:44:28 10° WNW 02:47:41 57° SSW 02:50:53 10° SE visible
29 Jul - 04:22:04 10° WSW 04:23:34 13° SW 04:25:04 10° SSW night (unlit)
29 Jul - 21:03:08 10° S 21:05:34 20° SE 21:08:01 10° E daylight
29 Jul - 22:38:23 10° WSW 22:41:39 81° SSE 22:44:55 10° ENE visible
30 Jul - 00:14:58 10° W 00:18:12 58° N 00:21:26 10° E visible
30 Jul - 01:51:30 10° WNW 01:54:47 83° SSW 01:58:02 10° ESE visible
30 Jul - 03:28:21 10° W 03:30:52 20° SW 03:33:22 10° SSE night (unlit)
30 Jul - 20:11:32 10° SSE 20:12:53 12° SE 20:14:14 10° ESE daylight
30 Jul - 21:45:32 10° SW 21:48:45 55° SSE 21:51:56 10° ENE visible
30 Jul - 23:21:57 10° W 23:25:12 61° N 23:28:27 10° ENE visible
31 Jul - 00:58:32 10° WNW 01:01:49 75° NNE 01:05:05 10° E visible
31 Jul - 02:35:08 10° W 02:38:05 32° SSW 02:41:03 10° SSE visible
31 Jul - 20:52:52 10° SW 20:55:53 35° SSE 20:58:54 10° E daylight
31 Jul - 22:28:56 10° W 22:32:12 72° NNW 22:35:28 10° ENE visible
01 Aug - 00:05:34 10° WNW 00:08:49 63° N 00:12:04 10° E visible
01 Aug - 01:42:04 10° WNW 01:45:15 50° SSW 01:48:25 10° SE visible
01 Aug - 03:20:10 10° WSW 03:21:05 11° SW 03:21:59 10° SSW night (unlit)
01 Aug - 20:00:29 10° SSW 20:03:06 22° SE 20:05:43 10° E daylight
01 Aug - 21:35:57 10° WSW 21:39:13 88° SSE 21:42:30 10° ENE visible
01 Aug - 23:12:34 10° W 23:15:48 58° N 23:19:02 10° E visible
02 Aug - 00:49:05 10° WNW 00:52:21 76° SSW 00:55:36 10° ESE visible
02 Aug - 02:26:04 10° W 02:28:23 18° SW 02:30:41 10° S night (unlit)
02 Aug - 19:08:36 10° S 19:10:22 14° SE 19:12:09 10° ESE daylight
02 Aug - 20:43:04 10° WSW 20:46:17 62° SSE 20:49:32 10° ENE daylight
02 Aug - 22:19:33 10° W 22:22:47 60° N 22:26:01 10° ENE visible
02 Aug - 23:56:07 10° WNW 23:59:24 80° NNE 00:02:39 10° ESE visible
03 Aug - 01:32:45 10° W 01:35:37 28° SW 01:38:29 10° SSE visible
03 Aug - 19:50:20 10° SW 19:53:25 40° SSE 19:56:30 10° E daylight
03 Aug - 21:26:30 10° W 21:29:46 68° N 21:33:02 10° ENE visible
03 Aug - 23:03:08 10° WNW 23:06:24 65° N 23:09:39 10° E visible
